[[{"header":{"parameterUnit":"m.s-1","parameterCategory":1,"la1":30.2991,"la2":30.254,"lo1":-89.0895,"lo2":-89.0444,"dy":0.0017,"dx":0.0017,"nx":28,"ny":28,"refTime":"2025-06-11T03:00:00:Z","depth":0,"parameterNumber":2,"parameterNumberName":"U-component_of_WINDS"},"data":[0,0,0,0,0,0,0,0,0,0,0,0,0,0,0,0,0,0,0,0,0,0,0,0,0,0,0,0,0,0,0,0,0,0,0,0,0,0,0,0,0,0,0,0,0,0,0,0,0,0,0,0,0,0,0,0,0,0,-3.1897,-3.1897,0,-3.1874,-3.1873,-3.1873,-3.182,-3.1819,-3.1818,-3.1817,-3.1794,-3.1794,-3.1795,0,0,0,0,0,0,0,0,0,0,0,0,0,-3.1899,-3.19,-3.1898,-3.1897,-3.1897,-3.1874,-3.1873,-3.1873,-3.182,-3.1819,-3.1818,-3.1817,-3.1794,-3.1794,-3.1795,0,0,0,0,0,0,0,0,0,0,0,0,0,-3.1889,-3.19,-3.1898,-3.1868,-3.1865,-3.1874,-3.1873,-3.1873,-3.1821,-3.1819,-3.1818,-3.1816,-3.1794,-3.1794,-3.1795,-3.1831,0,0,-3.1796,-3.1797,0,0,0,0,0,0,0,0,-3.189,-3.1889,-3.1873,-3.187,-3.1867,-3.1848,-3.1865,-3.1859,-3.1821,-3.1838,-3.1817,-3.1815,-3.1813,-3.1812,-3.1811,-3.183,-3.1829,-3.1797,-3.1797,-3.1797,-3.1797,0,0,0,0,0,0,0,-3.1891,-3.189,-3.1888,-3.1872,-3.1869,-3.1856,-3.1853,-3.1864,-3.1835,-3.1836,-3.1832,-3.183,-3.1811,-3.1811,-3.181,-3.1828,-3.1796,-3.1797,-3.1797,-3.1798,-3.1874,-3.1876,0,0,0,0,0,0,-3.1896,-3.1891,-3.1889,-3.1887,-3.1875,-3.1858,-3.1854,-3.1856,-3.1835,-3.183,-3.1831,-3.1828,-3.1811,-3.181,-3.1809,-3.1849,-3.1797,-3.1798,-3.1798,-3.1872,-3.1874,-3.1876,0,0,0,0,0,0,-3.1896,-3.1896,-3.189,-3.1888,-3.1886,-3.1859,-3.1862,-3.1856,-3.1855,-3.1831,-3.1826,-3.1836,-3.1809,-3.1809,-3.1825,-3.1847,-3.1798,-3.1798,-3.187,-3.1873,-3.1875,-3.1929,0,0,0,0,0,0,-3.1896,-3.1896,-3.1909,-3.1889,-3.1887,-3.1906,-3.1863,-3.1857,-3.1856,-3.1851,-3.1834,-3.183,-3.1808,-3.1825,-3.1826,-3.1847,-3.1799,-3.1868,-3.1872,-3.1875,-3.1925,-3.1933,-3.1939,0,0,0,0,0,-3.1896,-3.1926,-3.191,-3.191,-3.1902,-3.1907,-3.1906,-3.188,-3.1858,-3.1871,-3.1856,-3.183,-3.1845,-3.1827,-3.1828,-3.1849,-3.1867,-3.1871,-3.1874,-3.1921,-3.1931,-3.1939,0,0,0,0,0,0,-3.195,-3.1922,-3.1905,-3.1928,-3.1921,-3.1898,-3.1914,-3.1892,-3.189,-3.1885,-3.1854,-3.1851,-3.1872,-3.1863,-3.1843,-3.1883,-3.1852,-3.1856,-3.1887,-3.1896,-3.1904,-3.1904,-3.1799,0,0,0,0,0,-3.1964,-3.197,-3.1946,-3.1969,-3.1966,-3.1941,-3.1942,-3.1923,-3.1914,-3.191,-3.1896,-3.1888,-3.1891,-3.1894,-3.1895,-3.1924,-3.1919,-3.194,-3.1947,-3.1953,-3.1956,-3.197,-3.1978,-3.1889,-3.1889,-3.1889,0,0,-3.1994,-3.198,-3.1986,-3.198,-3.1971,-3.1978,-3.1938,-3.1948,-3.1952,-3.1912,-3.1926,-3.1916,-3.1905,-3.1928,-3.1938,-3.1921,-3.198,-3.1958,-3.1963,-3.1963,-3.1975,-3.1983,-3.1991,-3.1891,-3.1891,-3.189,0,0,-3.2051,-3.2042,-3.2059,-3.2052,-3.204,-3.2023,-3.2027,-3.2009,-3.2,-3.2014,-3.1983,-3.199,-3.1995,-3.1989,-3.1986,-3.2042,-3.2018,-3.2044,-3.2081,-3.2095,-3.2102,-3.2108,-3.2126,-3.2134,-3.2048,-3.2048,-3.2048,0,-3.209,-3.2099,-3.2071,-3.2082,-3.208,-3.2044,-3.2062,-3.2056,-3.2045,-3.2045,-3.2027,-3.2033,-3.2024,-3.2044,-3.2058,-3.2058,-3.2061,-3.2045,-3.2103,-3.2109,-3.2114,-3.2131,-3.2139,-3.2051,-3.2051,-3.205,-3.205,0,-3.2146,-3.2153,-3.2169,-3.2158,-3.2159,-3.2173,-3.2148,-3.2152,-3.2134,-3.2119,-3.2133,-3.2121,-3.2119,-3.2123,-3.2105,-3.214,-3.2131,-3.2109,-3.2076,-3.2126,-3.2142,-3.2148,-3.2055,-3.2054,-3.2053,-3.2053,0,0,-3.2234,-3.2209,-3.2215,-3.221,-3.2194,-3.2199,-3.2213,-3.221,-3.2213,-3.2208,-3.2217,-3.2223,-3.2203,-3.22,-3.2182,-3.2194,-3.2237,-3.217,-3.217,-3.2182,-3.2274,-3.2289,-3.2297,-3.2222,-3.2224,-3.2225,-3.2274,0,-3.2286,-3.2306,-3.2282,-3.2307,-3.2313,-3.2279,-3.2291,-3.2282,-3.2269,-3.2273,-3.2258,-3.2262,-3.2236,-3.2234,-3.2245,-3.223,-3.2255,-3.2226,-3.223,-3.2231,-3.2231,-3.2305,-3.2321,-3.2369,-3.228,-3.2281,-3.2282,0,-3.2349,-3.2346,-3.2371,-3.2354,-3.2355,-3.2366,-3.2361,-3.2365,-3.2355,-3.2345,-3.2342,-3.232,-3.2332,-3.2302,-3.2318,-3.2298,-3.2299,-3.2292,-3.2293,-3.2291,-3.2258,-3.2303,-3.2383,-3.239,-3.2292,-3.2291,-3.229,0,-3.2409,-3.2411,-3.2426,-3.2423,-3.2404,-3.2412,-3.2404,-3.2393,-3.2393,-3.2389,-3.2389,-3.2388,-3.2386,-3.2386,-3.2364,-3.2345,-3.2381,-3.235,-3.2372,-3.2373,-3.238,-3.2379,-3.2459,-3.2384,-3.2384,-3.2384,-3.2384,0,-3.2469,-3.2485,-3.2453,-3.2462,-3.2479,-3.2453,-3.2471,-3.246,-3.245,-3.2456,-3.2429,-3.2435,-3.2407,-3.2411,-3.2394,-3.2408,-3.2409,-3.24,-3.2395,-3.2401,-3.2402,-3.24,-3.2395,-3.2386,-3.2385,-3.2385,-3.2384,0,-3.2537,-3.2516,-3.253,-3.2511,-3.2506,-3.252,-3.2503,-3.2511,-3.2497,-3.2505,-3.2506,-3.2483,-3.2486,-3.2465,-3.2464,-3.2453,-3.2475,-3.2465,-3.2477,-3.2474,-3.2496,-3.2493,-3.2575,-3.2584,-3.2506,-3.2506,-3.2507,0,-3.2575,-3.2587,-3.2569,-3.2571,-3.2564,-3.2569,-3.2568,-3.2543,-3.2544,-3.2534,-3.2543,-3.2543,-3.2542,-3.2549,-3.2532,-3.2532,-3.252,-3.2549,-3.252,-3.2526,-3.2519,-3.2517,-3.2518,-3.2555,-3.2556,-3.2557,-3.2557,0,-3.2645,-3.2634,-3.2634,-3.2631,-3.2632,-3.2628,-3.2623,-3.2627,-3.2599,-3.2602,-3.2604,-3.2603,-3.2602,-3.2603,-3.2599,-3.2592,-3.257,-3.2567,-3.2571,-3.2577,-3.2583,-3.2578,-3.2492,-3.2565,-3.2564,-3.2563,-3.2563,-3.2563,-3.2698,-3.2707,-3.2695,-3.2696,-3.269,-3.2685,-3.2691,-3.2678,-3.2679,-3.2676,-3.2661,-3.2666,-3.2657,-3.2649,-3.2643,-3.2647,-3.2633,-3.264,-3.2642,-3.2643,-3.2646,-3.2584,-3.2646,-3.2646,-3.2646,-3.2646,-3.2645,0,-3.2765,-3.2756,-3.2757,-3.275,-3.2752,-3.2732,-3.2725,-3.2727,-3.2731,-3.2724,-3.2723,-3.2726,-3.2727,-3.2711,-3.2709,-3.2715,-3.2705,-3.2716,-3.2714,-3.2712,-3.266,-3.2655,-3.2724,-3.2724,-3.2724,-3.2724,-3.2724,-3.2724,-3.2799,-3.2812,-3.28,-3.281,-3.28,-3.2805,-3.2802,-3.2798,-3.2792,-3.2796,-3.2796,-3.2786,-3.2775,-3.2772,-3.2772,-3.2767,-3.2767,-3.2781,-3.2773,-3.2724,-3.2716,-3.2709,-3.2704,-3.2781,-3.2782,-3.2824,-3.2824,-3.2825]},{"header":{"parameterUnit":"m.s-1","parameterCategory":1,"la1":30.2991,"la2":30.254,"lo1":-89.0895,"lo2":-89.0444,"dy":0.0017,"dx":0.0017,"nx":28,"ny":28,"refTime":"2025-06-11T03:00:00:Z","depth":0,"parameterNumber":3,"parameterNumberName":"V-component_of_WINDS"},"data":[0,0,0,0,0,0,0,0,0,0,0,0,0,0,0,0,0,0,0,0,0,0,0,0,0,0,0,0,0,0,0,0,0,0,0,0,0,0,0,0,0,0,0,0,0,0,0,0,0,0,0,0,0,0,0,0,0,0,4.3369,4.3369,0,4.3385,4.3385,4.3385,4.3347,4.3346,4.3344,4.3343,4.3358,4.3359,4.3361,0,0,0,0,0,0,0,0,0,0,0,0,0,4.3304,4.3305,4.3369,4.3369,4.337,4.3385,4.3385,4.3385,4.3347,4.3345,4.3344,4.3343,4.3357,4.3359,4.3361,0,0,0,0,0,0,0,0,0,0,0,0,0,4.3327,4.3306,4.3369,4.3352,4.3351,4.3385,4.3385,4.3385,4.3347,4.3345,4.3344,4.3342,4.3357,4.3359,4.3361,4.3411,0,0,4.3368,4.3369,0,0,0,0,0,0,0,0,4.3326,4.333,4.3355,4.3354,4.3352,4.3362,4.3367,4.3394,4.3348,4.3349,4.3343,4.3341,4.336,4.3362,4.3369,4.3412,4.3413,4.3368,4.3369,4.337,4.3371,0,0,0,0,0,0,0,4.3324,4.3329,4.3375,4.3355,4.3354,4.3343,4.3345,4.3372,4.3364,4.3348,4.3346,4.3348,4.3359,4.3367,4.3369,4.3413,4.3368,4.337,4.3371,4.3372,4.3498,4.35,0,0,0,0,0,0,4.3325,4.3328,4.3375,4.3376,4.3334,4.3346,4.3347,4.3361,4.3364,4.3363,4.335,4.3346,4.3364,4.3367,4.337,4.3429,4.337,4.3373,4.3374,4.3496,4.3498,4.35,0,0,0,0,0,0,4.3324,4.333,4.3374,4.3351,4.3356,4.3349,4.3364,4.3362,4.337,4.3365,4.3363,4.3359,4.3363,4.3366,4.3401,4.3429,4.3374,4.3376,4.3494,4.3497,4.3499,4.3548,0,0,0,0,0,0,4.3322,4.333,4.3349,4.3352,4.3357,4.3407,4.3366,4.3364,4.3374,4.337,4.3373,4.3372,4.3362,4.3398,4.3404,4.3431,4.3377,4.3491,4.3495,4.3498,4.3544,4.3552,4.3559,0,0,0,0,0,4.332,4.3362,4.335,4.3356,4.3382,4.3408,4.3411,4.3399,4.3376,4.3396,4.3393,4.3372,4.3425,4.3402,4.3408,4.3436,4.3489,4.3494,4.3498,4.354,4.355,4.3559,0,0,0,0,0,0,4.3362,4.3362,4.3349,4.3393,4.3401,4.3402,4.3426,4.341,4.3424,4.3419,4.3402,4.3403,4.3441,4.3442,4.3417,4.3485,4.3453,4.3459,4.3483,4.3493,4.35,4.3499,4.3379,0,0,0,0,0,4.3376,4.3398,4.3397,4.3436,4.3441,4.3433,4.3444,4.3433,4.344,4.3443,4.3443,4.345,4.3468,4.3481,4.3497,4.3544,4.3544,4.3566,4.3574,4.358,4.3585,4.361,4.3619,4.3515,4.3515,4.3515,0,0,4.3406,4.3409,4.3424,4.3444,4.3449,4.3472,4.3436,4.3461,4.3477,4.3447,4.348,4.348,4.3487,4.3528,4.3546,4.353,4.3614,4.3586,4.3591,4.3592,4.3615,4.3625,4.3634,4.3518,4.3517,4.3517,0,0,4.3472,4.3477,4.351,4.3515,4.3523,4.3518,4.3526,4.3529,4.3528,4.3561,4.3539,4.3558,4.3589,4.3595,4.3602,4.3671,4.3652,4.3677,4.3717,4.3741,4.3749,4.3756,4.378,4.3789,4.3682,4.3682,4.3682,0,4.3508,4.3542,4.3528,4.3556,4.3565,4.3539,4.3572,4.3578,4.3591,4.3598,4.358,4.3619,4.3622,4.3664,4.368,4.3687,4.3695,4.3676,4.3749,4.3756,4.3763,4.3786,4.3795,4.3685,4.3684,4.3684,4.3684,0,4.3586,4.3609,4.3635,4.3649,4.3661,4.3691,4.3681,4.3695,4.3684,4.368,4.3714,4.3716,4.3733,4.3742,4.3731,4.3783,4.3772,4.3752,4.3719,4.3776,4.3797,4.3806,4.3689,4.3688,4.3687,4.3686,0,0,4.3678,4.3684,4.3694,4.37,4.3707,4.3725,4.3753,4.377,4.3782,4.3792,4.3815,4.3842,4.3824,4.3832,4.3821,4.3842,4.3896,4.3819,4.3819,4.3833,4.3953,4.3968,4.3978,4.3884,4.3886,4.3887,4.3952,0,4.3744,4.3793,4.3782,4.383,4.3852,4.3828,4.3852,4.3859,4.3856,4.3873,4.387,4.389,4.3864,4.3868,4.3888,4.3885,4.392,4.388,4.3905,4.3906,4.3904,4.3989,4.4005,4.4067,4.396,4.3962,4.3963,0,4.3826,4.384,4.3891,4.3894,4.3903,4.3926,4.394,4.3957,4.3964,4.396,4.3969,4.3955,4.3982,4.395,4.3987,4.3961,4.397,4.397,4.3972,4.3974,4.3938,4.3993,4.4086,4.4095,4.3976,4.3975,4.3974,0,4.3889,4.392,4.3954,4.396,4.3965,4.3981,4.3984,4.3989,4.4,4.4012,4.4019,4.4034,4.4042,4.4054,4.4043,4.4021,4.4082,4.4049,4.408,4.408,4.4094,4.4093,4.4189,4.41,4.41,4.41,4.41,0,4.3963,4.3995,4.3982,4.4004,4.4039,4.4025,4.406,4.4059,4.4064,4.4084,4.4064,4.4083,4.4068,4.4086,4.4078,4.411,4.4114,4.4112,4.4109,4.4113,4.4114,4.4119,4.4114,4.4102,4.4102,4.4101,4.4101,0,4.4038,4.4031,4.4067,4.4069,4.407,4.4096,4.4097,4.4117,4.4112,4.4138,4.4143,4.4137,4.4157,4.4147,4.4168,4.4162,4.4204,4.4196,4.4202,4.42,4.4231,4.4228,4.4334,4.4347,4.425,4.425,4.4251,0,4.4086,4.411,4.4115,4.4127,4.4132,4.4152,4.4163,4.415,4.4162,4.4172,4.419,4.4208,4.4222,4.4255,4.4252,4.4267,4.4259,4.4295,4.4261,4.4265,4.4259,4.4258,4.426,4.4302,4.4303,4.4304,4.4305,0,4.4171,4.4167,4.4184,4.4199,4.4213,4.4225,4.4235,4.4246,4.4233,4.4248,4.4268,4.4279,4.43,4.4319,4.4333,4.4334,4.4318,4.4315,4.4323,4.4328,4.433,4.4329,4.422,4.4313,4.4312,4.4312,4.4311,4.4311,4.4234,4.4255,4.4261,4.4281,4.4287,4.4296,4.4315,4.4313,4.433,4.4346,4.4338,4.4361,4.4367,4.4384,4.4388,4.4406,4.4392,4.4404,4.4406,4.4409,4.4413,4.4328,4.4409,4.4409,4.4408,4.4408,4.4408,0,4.4319,4.4322,4.434,4.4354,4.4369,4.4352,4.4362,4.4376,4.4397,4.4404,4.4419,4.4442,4.446,4.4458,4.4474,4.4488,4.4481,4.4493,4.4492,4.4492,4.4425,4.4417,4.4499,4.4499,4.4499,4.4499,4.4499,4.4499,4.4364,4.4398,4.4394,4.443,4.4432,4.4456,4.4463,4.4471,4.4477,4.4504,4.4519,4.4517,4.4521,4.4537,4.4552,4.4551,4.4558,4.4573,4.4569,4.4506,4.4497,4.4489,4.448,4.4574,4.4574,4.4634,4.4635,4.4635]}]]